Location: Champseau
(45.8333°N, 1.7667°E)
Time: 05:51:41
(UTC+00:00)

Cosmos 2297 Rocket - Pass Details

Date: 18 April 2021
Orbit: 838 x 844 km, 71.0° (Epoch: 05 May)

Event Time Altitude Azimuth Distance (km) Brightness Sun altitude
Exits shadow 21:43:44 15° 225° (SW) 2,131 4.2 -26.1°
Maximum altitude 21:48:22 56° 301° (WNW) 993 2.7 -26.6°
Drops below altitude 10° 21:53:57 10° 19° (NNE) 2,470 5.1 -27.1°
Sets 21:56:28 0° 24° (NNE) 3,410 5.8 -27.4°
